Location: PSU-Greenbush Astrophysical Observatory
(37.5140°N, 94.9880°W)
Time: 00:21:56
(UTC-06:00)

S-56A Canister/Altair - All Passes

Search period start: 20 January 2020 00:00
Search period end: 30 January 2020 00:00
Orbit: 634 x 2498 km, 38.9° (Epoch: 19 January)

Date Brightness Start Highest point End Pass type
(mag) Time Alt. Az. Time Alt. Az. Time Alt. Az.
20 Jan - 01:52:31 10° WNW 01:57:00 82° SSW 02:02:32 10° ESE night (unlit)
20 Jan - 03:56:11 10° W 04:00:38 30° SSW 04:06:32 10° SSE visible
20 Jan - 19:11:28 10° SSE 19:13:32 11° SSE 19:15:24 10° SE visible
20 Jan - 21:11:45 10° SW 21:17:14 42° SSE 21:21:35 10° E visible
20 Jan - 23:15:59 10° W 23:20:47 81° N 23:25:14 10° E night (unlit)
21 Jan - 01:20:02 10° WNW 01:24:28 89° SSW 01:29:36 10° ESE night (unlit)
21 Jan - 03:23:41 10° W 03:28:02 33° SSW 03:33:39 10° SE visible
21 Jan - 18:39:47 10° SSE 18:40:48 10° SE 18:41:47 10° SE visible
21 Jan - 20:38:51 10° SW 20:44:40 38° SSE 20:49:06 10° E visible
21 Jan - 22:43:09 10° W 22:48:14 85° N 22:52:40 10° E night (unlit)
22 Jan - 00:47:28 10° W 00:51:56 86° NNE 00:56:46 10° E night (unlit)
22 Jan - 02:51:11 10° W 02:55:26 36° SSW 03:00:48 10° SE night (unlit)
22 Jan - 20:05:55 10° SW 20:12:03 35° SSE 20:16:37 10° E visible
22 Jan - 22:10:14 10° WSW 22:15:41 89° S 22:20:09 10° ENE visible
23 Jan - 00:14:50 10° W 00:19:24 81° N 00:24:01 10° E night (unlit)
23 Jan - 02:18:39 10° W 02:22:53 40° SSW 02:27:59 10° SE night (unlit)
23 Jan - 04:26:11 10° SW 04:26:27 10° SSW 04:26:45 10° SSW visible
23 Jan - 19:32:56 10° SSW 19:39:23 32° SSE 19:44:08 10° E visible
23 Jan - 21:37:14 10° WSW 21:43:08 83° SSE 21:47:42 10° ENE visible
23 Jan - 23:42:07 10° W 23:46:51 77° N 23:51:21 10° E night (unlit)
24 Jan - 01:46:07 10° W 01:50:21 45° SSW 01:55:15 10° SE night (unlit)
24 Jan - 03:52:11 10° SW 03:53:49 11° SSW 03:55:33 10° SSW visible
24 Jan - 18:59:56 10° SSW 19:06:41 30° SSE 19:11:38 10° E visible
24 Jan - 21:04:09 10° WSW 21:10:33 77° SSE 21:15:16 10° ENE visible
24 Jan - 23:09:20 10° W 23:14:19 76° N 23:18:45 10° E night (unlit)
25 Jan - 01:13:32 10° W 01:17:51 51° SSW 01:22:32 10° SE night (unlit)
25 Jan - 03:19:00 10° WSW 03:21:10 13° SSW 03:23:33 10° S night (unlit)
25 Jan - 18:26:53 10° SSW 18:33:55 28° SSE 18:39:05 10° E visible
25 Jan - 20:30:59 10° WSW 20:37:56 71° SSE 20:42:52 10° ENE visible
25 Jan - 22:36:25 10° W 22:41:46 75° N 22:46:13 10° E night (unlit)
26 Jan - 00:40:54 10° W 00:45:21 59° SSW 00:49:55 10° ESE night (unlit)
26 Jan - 02:46:01 10° WSW 02:48:35 15° SSW 02:51:24 10° S night (unlit)
26 Jan - 17:53:51 10° SSW 18:01:07 26° SSE 18:06:30 10° E visible
26 Jan - 19:57:44 10° WSW 20:05:16 66° SSE 20:10:28 10° E visible
26 Jan - 22:03:24 10° W 22:09:11 76° N 22:13:43 10° E visible
27 Jan - 00:08:12 10° W 00:12:51 67° SSW 00:17:19 10° ESE night (unlit)
27 Jan - 02:13:07 10° WSW 02:16:01 17° SSW 02:19:11 10° S night (unlit)
27 Jan - 17:20:48 10° SSW 17:28:15 24° SSE 17:33:51 10° E daylight
27 Jan - 19:24:26 10° WSW 19:32:34 61° SSE 19:38:03 10° E visible
27 Jan - 21:30:16 10° W 21:36:35 78° N 21:41:16 10° E visible
27 Jan - 23:35:25 10° WNW 23:40:21 76° SSW 23:44:46 10° ESE night (unlit)
28 Jan - 01:40:16 10° W 01:43:30 20° SSW 01:46:55 10° SSE night (unlit)
28 Jan - 16:47:48 10° SSW 16:55:21 23° SSE 17:01:08 10° E daylight
28 Jan - 18:51:04 10° SW 18:59:49 57° SSE 19:05:39 10° E visible
28 Jan - 20:57:02 10° W 21:03:57 80° N 21:08:52 10° E visible
28 Jan - 23:02:33 10° WNW 23:07:49 83° SSW 23:12:15 10° ESE night (unlit)
29 Jan - 01:07:25 10° W 01:11:00 23° SSW 01:14:38 10° SSE night (unlit)
29 Jan - 16:14:51 10° S 16:22:24 21° SE 16:28:18 10° E daylight
29 Jan - 18:17:40 10° SW 18:27:01 53° SSE 18:33:13 10° E visible
29 Jan - 20:23:42 10° W 20:31:16 84° N 20:36:28 10° E visible
29 Jan - 22:29:34 10° WNW 22:35:17 90° S 22:39:47 10° ESE visible
